Location: N�rnberg
(49.4489°N, 11.0797°E)
Time: 15:50:18
(UTC+01:00)

ISS - Visible Passes

Search period start: 24 November 2017 00:00
Search period end: 04 December 2017 00:00
Orbit: 402 x 407 km, 51.6° (Epoch: 24 November)

Date Brightness Start Highest point End Pass type
(mag) Time Alt. Az. Time Alt. Az. Time Alt. Az.
27 Nov -0.8 19:07:39 10° SSW 19:07:51 11° SSW 19:07:51 11° SSW visible
28 Nov -1.9 18:15:56 10° S 18:17:50 19° SSE 18:17:50 19° SSE visible
29 Nov -1.5 17:24:51 10° SSE 17:26:18 12° SE 17:27:44 10° ESE visible
29 Nov -1.6 18:58:59 10° SW 19:00:25 23° SW 19:00:25 23° SW visible
30 Nov -3.0 18:06:52 10° SW 18:09:55 36° SSE 18:10:15 35° SE visible
01 Dec -2.2 17:15:00 10° SSW 17:17:40 23° SE 17:20:01 12° E visible
01 Dec -2.3 18:50:34 10° WSW 18:52:40 37° WSW 18:52:40 37° WSW visible
02 Dec -3.7 17:58:12 10° WSW 18:01:28 65° SSE 18:02:23 41° E visible
02 Dec -0.3 19:34:46 10° W 19:35:02 12° W 19:35:02 12° W visible
03 Dec -3.1 17:05:59 10° SW 17:09:07 42° SSE 17:12:04 11° E visible
03 Dec -2.8 18:42:15 10° W 18:44:42 44° WNW 18:44:42 44° WNW visible
